LOT4NJ EPWA-EPSC

Flight info

Callsign LOT4NJ
Flight time 0h 43m
Altitude 28000
Route LOLSI DCT DIBLO DCT INDIG DCT DENKO DCT FORFE DCT ZAWIK
Aircraft E75L/M-SDE3GILORVW/S

Departure

Time 2026-05-05 13:44
Airport Warsaw Chopin Airport (EPWA)

Arrival

Time 2026-05-05 14:27
Airport Solidarity Szczecin–Goleniów Airport (EPSC)
Time Latitude Longitude Altitude Speed Heading
2026-05-05 13:04 52.17345 20.97076 331 ft 0 kts 242°
2026-05-05 13:25 52.17345 20.97077 337 ft 0 kts 242°
2026-05-05 13:32 52.17351 20.97093 337 ft 4 kts 240°
2026-05-05 13:32 52.17364 20.97132 334 ft 4 kts 243°
2026-05-05 13:33 52.17368 20.97157 332 ft 2 kts 282°
2026-05-05 13:33 52.17362 20.97172 334 ft 2 kts 319°
2026-05-05 13:33 52.17353 20.97182 332 ft 2 kts 329°
2026-05-05 13:33 52.17351 20.97185 331 ft 0 kts 329°
2026-05-05 13:36 52.17353 20.97182 332 ft 1 kts 329°
2026-05-05 13:36 52.17368 20.97169 332 ft 4 kts 332°
2026-05-05 13:36 52.17398 20.97143 322 ft 6 kts 332°
2026-05-05 13:37 52.17441 20.97106 335 ft 8 kts 332°
2026-05-05 13:37 52.17497 20.97057 333 ft 10 kts 332°
2026-05-05 13:37 52.17566 20.96997 337 ft 12 kts 331°
2026-05-05 13:37 52.17625 20.96902 337 ft 13 kts 269°
2026-05-05 13:38 52.17582 20.96776 335 ft 13 kts 239°
2026-05-05 13:38 52.17533 20.96642 336 ft 14 kts 239°
2026-05-05 13:38 52.17471 20.96513 335 ft 15 kts 238°
2026-05-05 13:38 52.17437 20.96413 336 ft 7 kts 231°
2026-05-05 13:39 52.17391 20.96399 334 ft 8 kts 162°
2026-05-05 13:39 52.17333 20.96447 335 ft 11 kts 152°
2026-05-05 13:39 52.17263 20.96508 335 ft 12 kts 151°
2026-05-05 13:39 52.17180 20.96580 336 ft 14 kts 153°
2026-05-05 13:40 52.17087 20.96661 335 ft 16 kts 152°
2026-05-05 13:40 52.16983 20.96753 336 ft 18 kts 151°
2026-05-05 13:40 52.16870 20.96851 335 ft 19 kts 152°
2026-05-05 13:40 52.16748 20.96958 334 ft 21 kts 152°
2026-05-05 13:41 52.16647 20.97112 336 ft 21 kts 115°
2026-05-05 13:41 52.16587 20.97325 333 ft 15 kts 115°
2026-05-05 13:41 52.16540 20.97488 335 ft 17 kts 115°
2026-05-05 13:41 52.16490 20.97669 336 ft 18 kts 114°
2026-05-05 13:42 52.16440 20.97803 335 ft 7 kts 158°
2026-05-05 13:42 52.16406 20.97795 337 ft 5 kts 202°
2026-05-05 13:42 52.16371 20.97771 337 ft 6 kts 204°
2026-05-05 13:42 52.16327 20.97738 333 ft 8 kts 205°
2026-05-05 13:43 52.16302 20.97682 333 ft 6 kts 289°
2026-05-05 13:43 52.16323 20.97609 333 ft 8 kts 295°
2026-05-05 13:43 52.16386 20.97383 336 ft 54 kts 295°
2026-05-05 13:43 52.16655 20.96422 338 ft 130 kts 293°
2026-05-05 13:44 52.17118 20.94767 563 ft 179 kts 290°
2026-05-05 13:44 52.17613 20.92765 1335 ft 201 kts 284°
2026-05-05 13:44 52.17905 20.90535 2106 ft 202 kts 275°
2026-05-05 13:44 52.17988 20.88256 2949 ft 201 kts 268°
2026-05-05 13:45 52.17977 20.85976 3748 ft 208 kts 266°
2026-05-05 13:45 52.18041 20.83540 4491 ft 217 kts 272°
2026-05-05 13:45 52.18250 20.81068 5210 ft 224 kts 268°
2026-05-05 13:45 52.18030 20.78416 5999 ft 251 kts 255°
2026-05-05 13:46 52.17631 20.75514 6790 ft 281 kts 254°
2026-05-05 13:46 52.17153 20.72219 7611 ft 304 kts 255°
2026-05-05 13:46 52.16796 20.68863 8398 ft 306 kts 259°
2026-05-05 13:46 52.16506 20.65415 9198 ft 308 kts 259°
2026-05-05 13:47 52.16226 20.61945 9962 ft 310 kts 260°
2026-05-05 13:47 52.15950 20.58456 10683 ft 311 kts 260°
2026-05-05 13:47 52.15719 20.54955 11424 ft 314 kts 263°
2026-05-05 13:47 52.15587 20.51358 12186 ft 323 kts 264°
2026-05-05 13:48 52.15499 20.47701 12966 ft 321 kts 265°
2026-05-05 13:48 52.15547 20.44085 13731 ft 318 kts 270°
2026-05-05 13:48 52.15676 20.40508 14422 ft 314 kts 270°
2026-05-05 13:48 52.15816 20.36976 15132 ft 313 kts 270°
2026-05-05 13:49 52.15962 20.33357 15881 ft 327 kts 270°
2026-05-05 13:49 52.16115 20.29586 16656 ft 340 kts 271°
2026-05-05 13:49 52.16272 20.25678 17453 ft 352 kts 271°
2026-05-05 13:49 52.16434 20.21677 18227 ft 351 kts 271°
2026-05-05 13:50 52.16590 20.17766 18899 ft 341 kts 271°
2026-05-05 13:50 52.16737 20.13962 19592 ft 332 kts 271°
2026-05-05 13:50 52.16880 20.10265 20296 ft 326 kts 271°
2026-05-05 13:50 52.17021 20.06584 21017 ft 322 kts 271°
2026-05-05 13:51 52.17159 20.02929 21774 ft 325 kts 271°
2026-05-05 13:51 52.17298 19.99227 22551 ft 329 kts 271°
2026-05-05 13:51 52.17439 19.95496 23354 ft 332 kts 271°
2026-05-05 13:51 52.17529 19.91730 24037 ft 333 kts 268°
2026-05-05 13:52 52.17506 19.87958 24733 ft 333 kts 266°
2026-05-05 13:52 52.17417 19.84189 25441 ft 332 kts 264°
2026-05-05 13:52 52.17143 19.80464 26166 ft 331 kts 261°
2026-05-05 13:52 52.16831 19.76767 26909 ft 329 kts 261°
2026-05-05 13:53 52.16502 19.73074 27527 ft 331 kts 260°
2026-05-05 13:53 52.16160 19.69281 27705 ft 346 kts 260°
2026-05-05 13:53 52.15802 19.65317 27786 ft 363 kts 261°
2026-05-05 13:53 52.15555 19.62582 27816 ft 374 kts 260°
2026-05-05 13:54 52.15167 19.58302 27835 ft 391 kts 261°
2026-05-05 13:54 52.14760 19.53834 27851 ft 407 kts 261°
2026-05-05 13:54 52.14337 19.49196 27862 ft 422 kts 261°
2026-05-05 13:54 52.13895 19.44395 27858 ft 436 kts 261°
2026-05-05 13:55 52.13453 19.39583 27814 ft 419 kts 261°
2026-05-05 13:55 52.13020 19.34911 27799 ft 420 kts 260°
2026-05-05 13:55 52.12577 19.30174 27791 ft 424 kts 260°
2026-05-05 13:55 52.12133 19.25432 27783 ft 424 kts 260°
2026-05-05 13:56 52.11688 19.20704 27787 ft 423 kts 260°
2026-05-05 13:56 52.11242 19.15972 27789 ft 423 kts 260°
2026-05-05 13:56 52.10793 19.11241 27787 ft 423 kts 260°
2026-05-05 13:56 52.10342 19.06511 27786 ft 423 kts 260°
2026-05-05 13:57 52.09890 19.01789 27783 ft 423 kts 260°
2026-05-05 13:57 52.09437 18.97070 27789 ft 422 kts 260°
2026-05-05 13:57 52.08981 18.92349 27789 ft 422 kts 260°
2026-05-05 13:57 52.08524 18.87639 27788 ft 422 kts 260°
2026-05-05 13:58 52.08065 18.82923 27787 ft 422 kts 260°
2026-05-05 13:58 52.07604 18.78218 27789 ft 422 kts 260°
2026-05-05 13:58 52.07142 18.73515 27789 ft 421 kts 260°
2026-05-05 13:58 52.06679 18.68812 27789 ft 421 kts 260°
2026-05-05 13:59 52.05753 18.59488 27790 ft 421 kts 260°
2026-05-05 13:59 52.05286 18.54805 27794 ft 420 kts 260°
2026-05-05 14:00 52.04344 18.45440 27794 ft 420 kts 261°
2026-05-05 14:00 52.03872 18.40765 27797 ft 419 kts 261°
2026-05-05 14:00 52.03397 18.36091 27793 ft 419 kts 261°
2026-05-05 14:00 52.02922 18.31427 27795 ft 419 kts 261°
2026-05-05 14:01 52.02445 18.26770 27798 ft 419 kts 261°
2026-05-05 14:01 52.01965 18.22108 27799 ft 418 kts 261°
2026-05-05 14:01 52.01485 18.17455 27798 ft 418 kts 261°
2026-05-05 14:01 52.01003 18.12796 27801 ft 419 kts 261°
2026-05-05 14:02 52.00518 18.08138 27803 ft 419 kts 260°
2026-05-05 14:02 52.00170 18.03453 27799 ft 418 kts 268°
2026-05-05 14:02 52.00339 17.98736 27807 ft 420 kts 277°
2026-05-05 14:02 52.01048 17.94134 27800 ft 422 kts 287°
2026-05-05 14:03 52.02277 17.89796 27802 ft 425 kts 297°
2026-05-05 14:03 52.03923 17.85795 27820 ft 427 kts 303°
2026-05-05 14:03 52.05701 17.81925 27829 ft 428 kts 304°
2026-05-05 14:03 52.07517 17.78087 27830 ft 428 kts 304°
2026-05-05 14:04 52.09342 17.74262 27818 ft 428 kts 304°
2026-05-05 14:04 52.09958 17.72971 27816 ft 428 kts 304°
2026-05-05 14:04 52.12808 17.66426 27823 ft 426 kts 300°
2026-05-05 14:04 52.14415 17.62380 27831 ft 426 kts 299°
2026-05-05 14:05 52.16001 17.58304 27823 ft 426 kts 299°
2026-05-05 14:05 52.17580 17.54228 27823 ft 425 kts 299°
2026-05-05 14:05 52.19158 17.50153 27833 ft 425 kts 299°
2026-05-05 14:05 52.20733 17.46076 27837 ft 425 kts 299°
2026-05-05 14:06 52.22312 17.41986 27832 ft 425 kts 299°
2026-05-05 14:06 52.23884 17.37908 27834 ft 425 kts 299°
2026-05-05 14:06 52.25458 17.33817 27841 ft 425 kts 299°
2026-05-05 14:06 52.27029 17.29728 27845 ft 425 kts 298°
2026-05-05 14:07 52.28600 17.25634 27839 ft 425 kts 298°
2026-05-05 14:07 52.30167 17.21543 27851 ft 425 kts 298°
2026-05-05 14:07 52.31713 17.17501 27866 ft 425 kts 298°
2026-05-05 14:07 52.33276 17.13408 27849 ft 425 kts 298°
2026-05-05 14:08 52.34839 17.09310 27845 ft 424 kts 298°
2026-05-05 14:08 52.36400 17.05208 27861 ft 424 kts 298°
2026-05-05 14:08 52.37958 17.01108 27859 ft 424 kts 298°
2026-05-05 14:08 52.39515 16.97006 27864 ft 424 kts 298°
2026-05-05 14:09 52.41072 16.92895 27887 ft 424 kts 298°
2026-05-05 14:09 52.42624 16.88792 27871 ft 424 kts 298°
2026-05-05 14:09 52.44177 16.84679 27855 ft 424 kts 298°
2026-05-05 14:09 52.45727 16.80568 27848 ft 424 kts 298°
2026-05-05 14:10 52.47274 16.76457 27862 ft 424 kts 298°
2026-05-05 14:10 52.48819 16.72344 27859 ft 424 kts 298°
2026-05-05 14:10 52.50363 16.68230 27852 ft 423 kts 298°
2026-05-05 14:10 52.51906 16.64111 27861 ft 424 kts 298°
2026-05-05 14:11 52.53448 16.59986 27848 ft 423 kts 298°
2026-05-05 14:11 52.54986 16.55866 27849 ft 423 kts 297°
2026-05-05 14:11 52.56522 16.51746 27859 ft 423 kts 297°
2026-05-05 14:11 52.58056 16.47621 27851 ft 423 kts 297°
2026-05-05 14:12 52.59590 16.43492 27851 ft 423 kts 297°
2026-05-05 14:12 52.61121 16.39364 27793 ft 423 kts 297°
2026-05-05 14:12 52.62650 16.35238 27519 ft 421 kts 297°
2026-05-05 14:12 52.64166 16.31136 27261 ft 419 kts 297°
2026-05-05 14:13 52.65679 16.27034 27002 ft 418 kts 297°
2026-05-05 14:13 52.67187 16.22942 26747 ft 417 kts 297°
2026-05-05 14:13 52.68691 16.18854 26418 ft 416 kts 297°
2026-05-05 14:13 52.70186 16.14782 26099 ft 415 kts 297°
2026-05-05 14:14 52.71676 16.10721 25771 ft 413 kts 297°
2026-05-05 14:14 52.73158 16.06672 25451 ft 412 kts 297°
2026-05-05 14:14 52.74635 16.02629 25147 ft 411 kts 297°
2026-05-05 14:14 52.76105 15.98602 24836 ft 409 kts 297°
2026-05-05 14:15 52.77572 15.94576 24526 ft 408 kts 297°
2026-05-05 14:15 52.79032 15.90562 24230 ft 407 kts 297°
2026-05-05 14:15 52.80644 15.86709 23910 ft 413 kts 309°
2026-05-05 14:15 52.82935 15.83791 23615 ft 421 kts 324°
2026-05-05 14:16 52.85477 15.81493 23317 ft 422 kts 328°
2026-05-05 14:16 52.88143 15.79464 22976 ft 423 kts 334°
2026-05-05 14:16 52.90894 15.77737 22627 ft 421 kts 334°
2026-05-05 14:16 52.93636 15.76063 22296 ft 419 kts 335°
2026-05-05 14:17 52.96372 15.74408 21954 ft 417 kts 335°
2026-05-05 14:17 52.99089 15.72767 21620 ft 415 kts 335°
2026-05-05 14:17 53.01793 15.71130 21286 ft 413 kts 335°
2026-05-05 14:17 53.04484 15.69499 20954 ft 411 kts 335°
2026-05-05 14:18 53.07166 15.67872 20627 ft 409 kts 335°
2026-05-05 14:18 53.09831 15.66252 20307 ft 407 kts 335°
2026-05-05 14:18 53.12480 15.64640 19990 ft 405 kts 335°
2026-05-05 14:18 53.15118 15.63032 19673 ft 403 kts 335°
2026-05-05 14:19 53.17743 15.61431 19236 ft 401 kts 335°
2026-05-05 14:19 53.20362 15.59889 18788 ft 397 kts 336°
2026-05-05 14:19 53.22894 15.58151 18344 ft 392 kts 332°
2026-05-05 14:19 53.25383 15.56305 17693 ft 390 kts 332°
2026-05-05 14:20 53.27765 15.54234 16981 ft 380 kts 321°
2026-05-05 14:20 53.29769 15.51444 16194 ft 373 kts 313°
2026-05-05 14:20 53.31574 15.48404 15272 ft 362 kts 310°
2026-05-05 14:20 53.33148 15.45209 14369 ft 353 kts 302°
2026-05-05 14:21 53.34565 15.41825 13487 ft 358 kts 302°
2026-05-05 14:21 53.35963 15.38392 12493 ft 354 kts 301°
2026-05-05 14:21 53.37322 15.35028 11432 ft 345 kts 301°
2026-05-05 14:21 53.38636 15.31718 10250 ft 334 kts 300°
2026-05-05 14:22 53.39824 15.28470 9014 ft 321 kts 299°
2026-05-05 14:22 53.40936 15.25302 7780 ft 311 kts 298°
2026-05-05 14:22 53.42041 15.22246 6593 ft 302 kts 305°
2026-05-05 14:22 53.43340 15.19532 5389 ft 296 kts 307°
2026-05-05 14:23 53.44650 15.16904 4169 ft 291 kts 310°
2026-05-05 14:23 53.46001 15.14404 3188 ft 282 kts 309°
2026-05-05 14:23 53.47185 15.12037 3037 ft 249 kts 310°
2026-05-05 14:23 53.48296 15.09937 2865 ft 237 kts 311°
2026-05-05 14:24 53.49352 15.07898 2588 ft 227 kts 311°
2026-05-05 14:24 53.50358 15.05940 2516 ft 213 kts 311°
2026-05-05 14:24 53.51300 15.04129 2310 ft 198 kts 312°
2026-05-05 14:24 53.52145 15.02491 2213 ft 171 kts 312°
2026-05-05 14:25 53.52895 15.01045 1790 ft 157 kts 314°
2026-05-05 14:25 53.53576 14.99724 1500 ft 143 kts 314°
2026-05-05 14:25 53.54205 14.98504 1289 ft 134 kts 315°
2026-05-05 14:25 53.54801 14.97352 1116 ft 128 kts 314°
2026-05-05 14:26 53.55363 14.96259 931 ft 120 kts 315°
2026-05-05 14:26 53.55908 14.95212 772 ft 121 kts 315°
2026-05-05 14:26 53.56457 14.94125 653 ft 123 kts 313°
2026-05-05 14:26 53.57025 14.93021 478 ft 125 kts 314°
2026-05-05 14:27 53.57590 14.91923 278 ft 122 kts 315°
2026-05-05 14:27 53.58119 14.90897 154 ft 105 kts 314°
2026-05-05 14:27 53.58530 14.90118 144 ft 75 kts 311°
2026-05-05 14:27 53.58779 14.89637 136 ft 32 kts 311°
2026-05-05 14:28 53.58913 14.89377 135 ft 25 kts 311°
2026-05-05 14:28 53.59022 14.89168 132 ft 15 kts 311°
2026-05-05 14:28 53.59104 14.89162 129 ft 14 kts 44°
2026-05-05 14:28 53.59132 14.89203 130 ft 1 kts 40°
2026-05-05 14:29 53.59138 14.89212 129 ft 1 kts 40°
2026-05-05 14:29 53.59153 14.89234 126 ft 4 kts 47°
2026-05-05 14:29 53.59163 14.89286 129 ft 6 kts 92°
2026-05-05 14:29 53.59153 14.89325 130 ft 2 kts 129°
2026-05-05 14:30 53.59146 14.89339 127 ft 0 kts 129°
2026-05-05 14:30 53.59143 14.89345 128 ft 3 kts 131°
2026-05-05 14:30 53.59116 14.89397 131 ft 7 kts 130°
2026-05-05 14:30 53.59104 14.89461 132 ft 7 kts 65°
2026-05-05 14:31 53.59143 14.89519 132 ft 7 kts 39°
2026-05-05 14:31 53.59174 14.89562 132 ft 5 kts 40°
2026-05-05 14:31 53.59196 14.89593 132 ft 5 kts 39°
2026-05-05 14:31 53.59226 14.89615 132 ft 5 kts 358°
2026-05-05 14:32 53.59250 14.89581 128 ft 0 kts 309°